Location: Breitenfeld
(46.8500°N, 15.6333°E)
Time: 12:09:45
(UTC+00:00)

Transit 4B - Visible Passes

Search period start: 29 May 2022 00:00
Search period end: 08 June 2022 00:00
Orbit: 948 x 1097 km, 32.4° (Epoch: 28 May)

Date Brightness Start Highest point End Pass type
(mag) Time Alt. Az. Time Alt. Az. Time Alt. Az.
29 May 10.3 00:21:55 14° SSE 00:21:55 14° SSE 00:24:16 10° SE visible
29 May 9.8 02:07:27 11° SW 02:12:04 22° S 02:16:50 10° SE visible
30 May 9.8 00:59:15 19° S 01:00:21 20° SSE 01:04:52 10° SE visible
30 May 10.3 23:51:04 13° SE 23:51:04 13° SE 23:52:30 10° SE visible
31 May 9.7 01:36:35 16° SSW 01:39:49 23° S 01:44:42 10° SE visible
01 Jun 9.8 00:28:25 21° SSE 00:28:25 21° SSE 00:32:51 10° SE visible
01 Jun 9.7 02:14:21 10° SW 02:19:15 22° S 02:24:04 10° SE visible
01 Jun 10.5 23:20:17 11° SE 23:20:17 11° SE 23:20:38 10° SE visible
02 Jun 9.6 01:05:49 21° SSW 01:07:32 23° S 01:12:33 10° SE visible
02 Jun 9.9 23:57:46 19° SSE 23:57:46 19° SSE 00:00:46 10° SE visible
03 Jun 9.7 01:43:18 14° SW 01:47:00 22° S 01:51:47 10° SE visible
04 Jun 9.6 00:35:21 23° S 00:35:21 23° S 00:40:22 10° SE visible
04 Jun 9.9 02:22:18 10° SW 02:26:22 17° SSW 02:30:21 10° SSE visible
04 Jun 10.3 23:27:33 14° SE 23:27:33 14° SE 23:28:38 10° SE visible
05 Jun 9.7 01:13:07 19° SSW 01:14:42 21° SSW 01:19:29 10° SE visible
06 Jun 10.0 00:05:36 19° SSE 00:05:36 19° SSE 00:08:08 10° SE visible
06 Jun 10.0 01:51:11 12° SW 01:54:03 16° SSW 01:57:50 10° SSE visible
06 Jun 10.4 20:55:42 10° SSW 20:56:51 13° S 20:56:51 13° S visible
06 Jun11.122:58:25ESE22:58:25ESE22:42:31WSWvisible
07 Jun 9.9 00:44:03 19° S 00:44:03 19° S 00:47:08 10° SSE visible
07 Jun 10.3 19:45:44 10° S 19:48:18 12° SSE 19:50:34 10° SE visible
07 Jun 10.2 21:34:08 10° SW 21:36:14 17° SSW 21:36:14 17° SSW visible
